DECAYED

STARLINK-2321, 47867 (Decayed)

Orbit data source: Space-Track

STARLINK-2321, 47867 was a payload satellite owned by SpaceX/Seattle (US) in LEO that was launched on Sun, 14 Mar 2021 UTC via an FALCON 9 launch vehicle from the Air Force Eastern Test Range (AFETR). Payload-class satellites include a variety of spacecraft equipped with specific instruments for various scientific and technological missions. These include communications satellites like Starlink; space stations such as the ISS; scientific satellites like the Hubble; Earth observation satellites from companies like Planet Labs, Umbra, and HawkEye 360; GPS; miniature CubeSats for education and research; and military/defense satellites.

Not visible in the next 10 days
Identifier
47867, 2021-021H
Orbit
Decayed
Country
Flag of USUS
Related business
Manufacturer
SpaceX/Seattle
Mission
Decayed Commercial Communications
Bus & Motor
STARLINK, Unknown motor
Mass
260 kg wet, ~248 kg dry
Launch date (UTC)
2021-03-14 (5 years ago)
Launch vehicle
FALCON 9
Launch site
Air Force Eastern Test Range (AFETR)
Object type
Payload
Rocket body
Debris
Shape & HBR
Box + 1 Pan, 10.1 m
Radar Cross Section
13.562 m², Large (>1 m²)

Expand to show TLE details & history
Last TLE update: 1 year ago

TLE from 1 year ago
0 STARLINK-2321
1 47867U 21021H   25051.71658925  .13732125  12476-4  79172-3 0  9991
2 47867  53.0399 129.2812 0003850 346.5518 154.8988 16.41860985218941
Epoch: 2025-02-20T17:11Z
TLE epoch observation values (Epoch: 2025-02-20T17:11:53.311Z)
Latitude
29.94885°
Longitude
-125.11293°
Altitude
164.818 km
Speed
7.81 km/s
True Right ascension
18h 54m 59s
True Declination
29° 47' 13"
Sunlit
Object was in daylight at epoch
Visualization orbit readout
Latitude
Unknown
Longitude
Unknown
Altitude
Unknown
Speed
Unknown
Apparent Right ascension
Unknown
Apparent Declination
Unknown
Sunlit
N/A
Visualization observer readout
Local Sidereal Time
21:30:05
Azimuth
Unknown
Elevation
Unknown
Doppler factor
Unknown
Orbital elements
Apogee altitude
163.663 km
Perigee altitude
158.628 km
Semi-major axis
6,539.282 km
Eccentricity
0.00039
Inclination
53.0399°
RAAN
129.2812°
Arg. of periapsis
346.5518°
True anomaly
154.91751°
Mean anomaly
154.8988°
Eccentric anomaly
154.90815°
Mean motion
4.10438 °/min
Orbital period
87.71 mins
BSTAR
0.00079172
Loading maneuver chart data...
Computing Atmospheric mass density...

Documentation

Showing up to 5 results
|